Showing default

COSMOS 1894, 18443

Orbit data source: Space-Track

COSMOS 1894, 18443 is a payload satellite owned by PVO (CIS) in GEO that was launched on Wed, 28 Oct 1987 UTC via a PROTON-K/DM-2 launch vehicle from the Tyuratam Missile And Space Complex (TTMTR). Payload-class satellites include a variety of spacecraft equipped with specific instruments for various scientific and technological missions. These include communications satellites like Starlink; space stations such as the ISS; scientific satellites like the Hubble; Earth observation satellites from companies like Planet Labs, Umbra, and HawkEye 360; GPS; miniature CubeSats for education and research; and military/defense satellites.

Not visible in the next 10 days
Identifier
18443, 1987-091A
Orbit
GEO
Country
Flag of CISCIS
Related business
Manufacturer
NPOL/KOMET
Mission
Defense Early Warn
Bus & Motor
OKO, Unknown motor
Mass
~1,250 kg wet, ~1,150 kg dry
Launch date (UTC)
1987-10-28 (38 years ago)
Launch vehicle
PROTON-K/DM-2
Launch site
Tyuratam Missile And Space Complex (TTMTR)
Object type
Payload
Rocket body
Debris
Shape & HBR
Cyl + 2 Pan, 2.5 m
Radar Cross Section
6.333 m², Large (>1 m²)

Expand to show TLE details & history
Last TLE update: 19 hours ago

TLE from 19 hours ago
0 COSMOS 1894
1 18443U 87091A   25258.00892128 -.00000197  00000-0  00000-0 0  9995
2 18443  11.1492 327.3099 0001867 334.5736  32.1341  1.00288634118068
Epoch: 2025-09-15T00:12Z
TLE epoch observation values (Epoch: 2025-09-15T00:12:50.798Z)
Latitude
1.29393°
Longitude
-23.52148°
Altitude
35,774.561 km
Speed
3.075 km/s
True Right ascension
22h 15m 38s
True Declination
1° 17' 33"
Sunlit
Object was in daylight at epoch
Visualization orbit readout
Latitude
Unknown
Longitude
Unknown
Altitude
Unknown
Speed
Unknown
Apparent Right ascension
Unknown
Apparent Declination
Unknown
Sunlit
N/A
Visualization observer readout
Local Sidereal Time
11:41:13
Azimuth
Unknown
Elevation
Unknown
Doppler factor
Unknown
Orbital elements
Apogee altitude
35,790.756 km
Perigee altitude
35,775.013 km
Semi-major axis
42,161.021 km
Eccentricity
0.00019
Inclination
11.1492°
RAAN
327.3099°
Arg. of periapsis
334.5736°
True anomaly
32.14548°
Mean anomaly
32.1341°
Eccentric anomaly
32.13979°
Mean motion
0.25071 °/min
Orbital period
1,435.91 mins
BSTAR
0
Loading maneuver chart data...
Computing Atmospheric mass density...
Loading historical data...
Loading historical data...
Loading historical data...
Loading historical data...
Loading historical data...
Loading historical data...
Loading historical data...

Documentation

Showing up to 5 results
|